Location: *
(50.5492°N, 7.7469°E)
Time: 05:37:05
(UTC+00:00)

Cosmos 2151 - Pass Details

Date: 21 October 2019
Orbit: 582 x 600 km, 82.5° (Epoch: 14 November)

Event Time Altitude Azimuth Distance (km) Brightness Sun altitude
Rises 19:14:54 0° 345° (NNW) 2,862 6.9 -27.4°
Reaches altitude 10° 19:17:09 10° 341° (NNW) 1,955 6.0 -27.7°
Enters shadow 19:20:43 47° 297° (WNW) 803 3.9 -28.3°
